User: anonymous   Login
Location: George Washington National Forest Helicopter Landing Site
(38.6463°N, 79.0851°W)
Time: 23:01:38
(UTC-04:00)
Language:

Courier 1B - Orbit

View from above orbital plane
View from above orbital plane
View from above satellite
View from above satellite

Ground track
Ground track

The orbit data is extracted from the following two-line orbital elements,

1    58U 60013A   19232.19099153  .00000094  00000-0  16954-4 0  9999
2    58  28.3256 188.0813 0165046  86.8306 275.1107 13.46318890898385
Epoch (UTC): 20 August 2019 04:35:01
Eccentricity: 0.0165046
inclination: 28.3256°
perigee height: 962 km
apogee height: 1209 km
right ascension of ascending node: 188.0813°
argument of perigee: 86.8306°
revolutions per day: 13.46318890
mean anomaly at epoch: 275.1107°
orbit number at epoch: 89838

The dashed part of the orbit path shows where the satellite is in the earth's shadow,  

DLR